Hourly Weather Roundup
Issued by NWS Central Illinois

Home | Current Version | Previous Version | Text Only | Print | Product List | Glossary On
Versions: 1 2 3 4 5 6 7 8 9 10 11 12 13 14 15 16 17 18 19 20 21 22 23 24 25 26 27 28 29 30 31 32 33 34 35 36 37 38 39 40 41 42 43 44 45 46 47 48 49 50
000
NZUS43 KILX 241910
HWRILX

Area Weather Roundup
National Weather Service Lincoln IL
200 PM CDT SAT JUN 24 2017

NOTE:  "FAIR" indicates few or no clouds below 12,000 feet, with
       no sigificant weather and/or obstructions to visibility.


CITY           SKY/WX    TMP DP  RH WIND       PRES   REMARKS
Bloomington    MOSUNNY   73  48  41 NW21G26   30.08S
Champaign      MOSUNNY   76  48  37 NW16G24   30.07R
Danville       PTSUNNY   73  53  49 W17G24    30.02S
Decatur        SUNNY     74  47  38 NW14G24   30.09R
Effingham      MOSUNNY   76  52  43 W17G24    30.10S
Flora          MOSUNNY   78  52  39 NW14G21   30.10R
Galesburg      SUNNY     72  44  37 W21G26    30.11F
Jacksonville   SUNNY     74  46  37 W20G26    30.11F
Lacon          MOSUNNY   72  47  41 NW20G26   30.06S
Lawrenceville  MOSUNNY   76  55  48 W14G24    30.07S
Litchfield     MOSUNNY   73  50  44 W16       30.12S
$$


CITY           SKY/WX    TMP DP  RH WIND       PRES   REMARKS
Lincoln        SUNNY     76  49  38 W7G18     30.08S
Macomb         SUNNY     73  43  34 NW15G25   30.13F
Mattoon        PTSUNNY   74  53  48 W15G22    30.08R
Mt Carmel AP   MOSUNNY   76  59  54 NW14G21   30.07S
Olney-Noble AP MOSUNNY   75  55  50 W15G21    30.09R
Paris AP       MOSUNNY   75  57  53 W16G23    30.07S
Peoria         SUNNY     73  45  36 W13G28    30.08S
Pontiac        MOSUNNY   73  46  37 W23G33    30.06S
Rantoul        MOSUNNY   75  48  38 NW15G28   30.07R
Robinson       MOSUNNY   76  57  52 W17G24    30.08R
Springfield    SUNNY     77  48  35 NW12G25   30.10R
Taylorville    MOSUNNY   74  48  39 W18       30.10S
$$

...REGIONAL REPORTS...


CITY           SKY/WX    TMP DP  RH WIND       PRES   REMARKS
Chicago O`Hare PTSUNNY   74  47  38 W15G25    29.99S
Kankakee       MOSUNNY   73  48  40 W18G28    30.04R
Moline         SUNNY     74  43  32 NW18G31   30.08F
Mount Sterling SUNNY     73  44  36 NW18G25   30.12F
Mount Vernon   SUNNY     76  51  41 W12       30.11S
Pittsfield     SUNNY     74  46  36 NW15G23   30.14S
Quincy         SUNNY     74  45  35 W15       30.13F
Rockford       PTSUNNY   73  48  41 W17G23    30.03S
$$


CITY           SKY/WX    TMP DP  RH WIND       PRES   REMARKS
Burlington     SUNNY     75  46  35 NW12G17   30.11F
Cedar Rapids   MOSUNNY   71  45  39 NW17G35   30.10F
Des Moines     PTSUNNY   75  41  29 W14       30.14S
Kirksville     MOSUNNY   75  44  33 NW14G23   30.18F
Ottumwa        SUNNY     75  40  28 W16G26    30.15S
St Louis       MOSUNNY   79  48  33 NW9       30.13F
$$


CITY           SKY/WX    TMP DP  RH WIND       PRES   REMARKS
Terre Haute    MOSUNNY   76  54  46 W16       30.05S
Evansville     MOSUNNY   80  56  43 W12       30.07F HX  80
Indianapolis   PTSUNNY   75  55  49 W21       30.02S
Lafayette      MOSUNNY   73  55  53 W16G25    30.01S
Madison        PTSUNNY   67  49  52 NW13G20   29.98F
Milwaukee      PTSUNNY   72  40  31 W17G28    29.97S
$$






USA.gov is the U.S. government's official web portal to all federal, state and local government web resources and services.